Wind_Speed
6 7 6 6 6 6 6 6 6 6 7 7 6 6 7 7 7 7 7 7 7 7 7 7 7 7 6 6 6 5 5 6 6 6 7 7 8 8 8 9 9 9 10
6 6 6 6 5 5 5 6 6 6 7 7 7 6 7 7 7 7 7 8 8 8 8 8 8 8 7 7 7 7 7 7 8 8 8 8 9 10 10 10 10 10 11
6 5 6 6 6 5 5 5 6 6 6 7 7 7 7 8 8 8 7 7 8 8 8 9 9 9 9 8 8 8 8 8 8 8 9 9 10 10 10 10 10 11 11
5 5 5 6 6 6 6 6 6 6 6 6 6 7 7 8 8 9 8 8 8 8 9 9 9 9 9 9 9 9 10 10 9 10 10 10 11 11 11 11 12 12 12
5 5 6 6 6 6 7 7 7 7 6 7 7 7 8 8 8 8 8 8 9 9 9 9 10 10 10 10 10 10 10 11 11 11 12 12 12 12 12 12 13 13 13
6 7 7 7 7 7 8 8 7 7 7 7 7 8 8 9 9 9 9 9 10 10 10 11 11 12 12 11 11 11 12 12 12 12 13 14 13 13 13 14 14 14 14
6 7 7 8 8 7 8 9 9 8 8 8 8 9 9 10 11 11 10 11 11 11 12 12 12 12 12 13 12 13 13 13 14 14 14 15 15 14 15 15 15 16 15
8 7 7 8 8 8 8 8 9 9 9 9 9 9 10 10 11 11 11 12 12 12 12 13 13 13 13 14 14 14 15 15 16 16 16 16 16 16 16 16 17 17 17
9 10 9 9 9 9 9 9 9 10 10 10 10 10 10 11 11 12 12 12 13 13 13 13 14 14 15 15 16 16 16 17 17 17 17 18 18 18 18 18 18 19 18
10 11 10 10 9 9 10 10 10 11 11 11 11 11 12 12 12 13 13 13 13 14 14 15 16 17 17 17 18 18 18 18 18 18 19 19 20 19 19 19 20 20 19
10 11 11 11 11 11 11 11 11 12 12 12 12 12 13 13 14 14 14 15 15 15 15 17 17 18 18 19 20 20 20 19 19 19 19 19 20 20 20 20 19 20 20
12 12 12 12 12 12 12 13 13 13 14 14 14 14 14 14 15 16 16 16 16 16 17 17 18 19 19 20 20 20 19 19 19 19 20 20 21 21 21 20 20 21 22
15 16 16 15 14 14 14 14 14 14 14 15 16 16 16 16 17 17 17 17 17 18 18 18 20 20 20 20 21 20 19 19 19 20 20 20 21 22 22 22 22 22 22
18 18 18 17 16 16 16 16 16 15 16 16 17 17 18 18 18 18 18 18 18 19 20 20 21 21 21 21 21 21 21 20 21 21 21 21 22 22 22 23 23 23 23
20 20 19 19 18 18 18 18 17 17 17 17 18 18 18 19 19 19 20 20 20 20 21 21 22 22 22 22 22 22 21 21 22 23 23 23 22 23 23 23 23 23 23
22 22 22 22 21 20 20 20 20 20 20 20 20 20 20 20 21 21 22 22 22 22 22 22 22 22 22 23 23 23 23 23 23 23 23 24 24 24 23 23 23 23 22
24 23 23 23 23 23 22 22 22 22 22 22 22 22 22 23 23 24 24 24 24 24 23 23 22 22 23 24 24 24 24 24 24 24 23 23 23 24 23 24 23 23 23
25 25 25 25 25 25 24 25 25 24 23 24 24 24 25 25 25 26 26 26 26 25 25 24 24 24 24 25 25 25 24 25 25 24 24 24 24 23 23 23 23 23 24
26 26 26 26 27 27 26 26 25 25 25 25 25 26 26 26 26 27 27 27 27 27 26 26 26 26 26 26 26 26 26 26 25 25 24 24 24 23 24 24 24 24 24
27 27 27 28 28 28 27 27 27 27 26 26 26 27 27 27 27 27 27 27 27 27 27 27 27 27 27 27 27 27 27 26 26 26 26 26 25 24 24 24 24 24 25
28 29 29 29 29 29 29 29 29 29 28 28 29 28 29 29 29 29 28 28 28 28 28 28 28 27 27 27 27 28 27 27 26 26 26 26 25 24 25 25 25 26 26
30 30 31 31 31 30 30 30 30 30 30 30 30 30 30 31 31 30 30 29 28 28 29 29 29 29 28 28 28 29 29 28 28 27 26 26 26 26 27 27 27 27 27
30 30 31 31 31 32 31 31 31 30 30 31 31 31 31 31 31 31 30 30 29 30 30 31 31 31 30 29 29 30 30 30 29 28 28 27 27 28 28 29 29 29 29
31 31 31 31 32 32 33 32 32 32 31 32 32 32 32 33 32 32 31 32 32 31 31 31 32 31 31 31 31 31 31 31 31 29 29 29 29 29 29 30 30 30 30
32 31 31 31 32 32 32 33 33 32 32 32 32 32 33 33 34 34 33 33 32 32 31 31 32 32 32 32 32 32 32 31 31 30 30 29 30 30 30 31 31 31 31
32 31 31 32 32 32 32 32 32 32 32 32 32 33 34 34 35 34 34 34 34 33 33 32 32 32 32 31 31 32 31 31 31 30 30 30 31 31 31 32 32 32 32
Wind_Direction
9 18 17 17 17 16 16 13 10 9 6 4 3 1 0 2 6 10 10 7 4 0 355 350 345 340 335 328 324 320 312 310 307 302 299 299 306 310 311 311 312 315 314
359 6 11 9 9 5 3 5 2 2 0 359 357 355 357 359 358 359 4 3 2 356 350 346 343 340 339 332 324 322 316 314 313 305 305 304 305 307 308 306 309 311 310
347 353 3 1 359 1 356 355 357 355 353 351 350 351 354 354 353 351 354 351 351 350 346 344 340 334 330 326 323 324 322 318 317 314 313 312 308 307 307 305 306 307 306
335 342 352 353 353 356 356 353 350 349 347 344 344 344 343 341 339 342 346 345 343 340 339 337 337 334 328 325 323 320 316 316 314 310 312 312 308 308 306 305 304 305 305
322 328 336 335 339 343 347 346 345 344 342 341 340 338 335 334 334 336 339 338 336 335 334 331 328 326 325 322 321 322 319 316 314 310 308 308 305 302 302 303 303 303 303
311 315 324 326 326 332 338 339 336 335 334 335 334 333 333 334 331 327 329 330 331 330 330 327 324 324 323 323 321 318 317 313 312 310 307 307 303 301 300 301 304 304 304
310 312 315 318 318 325 334 339 339 336 332 328 328 327 328 329 328 327 328 330 328 326 325 324 323 322 321 320 318 315 313 311 311 308 306 307 302 297 296 299 301 304 305
301 309 321 321 323 324 326 330 333 333 330 327 324 323 321 322 325 327 325 325 325 325 326 324 322 322 321 318 315 313 311 309 307 307 306 306 303 299 296 297 298 299 300
302 305 313 317 318 319 320 324 327 327 328 327 325 325 323 320 322 323 323 322 323 325 326 324 323 322 321 317 316 315 310 309 307 306 305 304 303 301 299 298 297 298 298
295 296 299 310 311 313 316 317 321 323 323 325 324 323 322 321 320 321 322 321 321 321 322 323 322 320 319 316 315 315 310 307 306 305 303 301 302 301 300 298 297 297 297
287 292 299 302 304 307 312 314 316 317 317 318 317 316 317 318 318 318 317 317 317 317 319 320 320 320 319 317 315 312 308 305 304 303 302 300 300 301 302 300 298 297 297
283 285 290 296 298 300 305 309 311 311 311 311 310 311 311 311 312 312 314 314 314 316 318 318 318 317 316 316 317 314 311 306 305 303 302 300 299 299 299 298 298 297 296
276 281 284 286 290 293 297 302 304 306 306 306 306 306 306 306 308 309 309 310 310 310 310 311 313 313 314 315 316 315 313 310 308 307 305 301 300 297 296 296 297 297 296
276 279 282 284 287 290 293 296 298 300 301 302 303 303 302 303 304 305 307 307 309 308 308 309 311 311 312 313 314 312 312 311 308 307 305 303 302 298 297 296 296 296 296
273 276 277 280 284 286 288 292 294 297 299 299 300 300 299 299 300 302 304 305 306 307 306 305 307 309 310 311 313 312 312 311 308 307 304 303 301 300 299 298 297 296 296
272 273 274 277 279 280 283 286 289 292 294 295 296 297 297 297 297 299 301 302 303 303 304 304 305 306 308 307 308 310 311 312 308 307 304 301 299 301 299 298 298 298 297
270 270 271 274 276 277 279 282 285 287 289 290 291 292 294 295 295 295 297 297 298 298 300 301 303 304 306 305 305 308 310 311 311 310 308 306 305 303 301 300 299 298 297
270 271 272 272 273 275 277 280 283 284 285 287 288 289 291 291 292 293 293 294 295 295 296 296 298 299 302 304 305 305 307 311 310 310 310 309 309 305 304 302 301 300 299
269 270 271 272 272 272 275 277 280 282 284 286 288 289 290 289 290 291 291 292 293 293 292 293 294 297 300 302 303 303 303 305 305 306 307 307 308 307 304 302 301 301 300
271 270 270 270 271 272 275 278 279 282 282 283 284 285 288 288 290 291 289 289 291 291 291 291 293 296 297 299 301 302 302 303 303 304 305 305 304 304 304 303 303 303 301
270 270 268 269 271 273 274 276 278 279 280 281 282 282 286 288 289 288 288 288 288 288 288 289 292 295 295 296 298 300 301 301 301 301 302 302 302 302 304 304 303 302 301
271 271 269 269 271 273 274 275 276 278 278 280 281 282 283 286 286 286 285 286 287 287 286 287 289 292 294 295 296 298 299 299 299 300 300 301 299 299 300 301 301 301 301
272 271 270 269 270 271 273 274 276 276 277 279 280 281 282 284 285 285 283 284 285 286 287 288 289 290 293 294 295 296 298 299 299 299 299 300 299 297 298 298 298 299 299
271 271 271 272 272 271 271 272 274 276 276 278 278 279 281 282 283 284 285 285 286 285 287 288 288 290 290 291 292 295 296 296 297 297 298 299 298 295 296 296 296 297 298
272 271 271 272 273 272 271 272 274 275 275 277 278 279 281 283 283 284 284 285 285 285 287 288 289 289 288 288 290 292 292 294 295 296 296 296 296 295 295 295 296 296 296
271 270 271 272 271 271 272 273 274 275 275 276 278 280 282 283 283 283 283 283 286 285 286 287 288 288 288 290 290 290 291 292 293 295 296 296 296 295 295 295 295 296 296
Height
5912 5911 5910 5909 5909 5909 5908 5908 5907 5907 5906 5905 5905 5905 5904 5903 5903 5902 5901 5900 5900 5899 5899 5898 5897 5896 5896 5895 5895 5894 5894 5894 5893 5893 5893 5893 5892 5892 5891 5891 5890 5890 5889
5912 5912 5911 5910 5910 5909 5909 5908 5908 5907 5907 5906 5906 5905 5904 5904 5903 5903 5902 5901 5900 5900 5899 5898 5897 5896 5895 5895 5894 5894 5894 5894 5893 5892 5892 5892 5892 5890 5890 5889 5888 5888 5887
5913 5912 5911 5911 5910 5910 5909 5909 5908 5908 5907 5906 5906 5905 5905 5904 5904 5903 5902 5901 5901 5900 5899 5898 5897 5896 5895 5895 5894 5893 5893 5893 5892 5891 5891 5890 5890 5889 5888 5887 5886 5885 5884
5913 5912 5911 5911 5910 5910 5909 5909 5908 5907 5907 5906 5906 5905 5905 5904 5903 5903 5902 5901 5900 5900 5899 5898 5897 5896 5895 5894 5893 5892 5892 5892 5891 5890 5889 5889 5888 5887 5886 5885 5884 5883 5882
5912 5912 5912 5911 5910 5910 5909 5908 5908 5907 5907 5906 5905 5905 5904 5904 5903 5902 5901 5901 5900 5899 5898 5897 5896 5895 5894 5893 5892 5891 5891 5890 5889 5888 5888 5887 5885 5885 5884 5883 5882 5881 5880
5912 5911 5911 5911 5910 5910 5909 5908 5907 5907 5906 5906 5905 5904 5904 5903 5902 5901 5901 5900 5899 5898 5897 5896 5895 5894 5893 5892 5891 5890 5889 5888 5887 5886 5885 5884 5883 5882 5881 5880 5879 5878 5877
5911 5911 5910 5910 5909 5909 5908 5907 5907 5906 5905 5905 5904 5903 5903 5902 5901 5900 5899 5899 5898 5897 5895 5894 5893 5892 5891 5890 5889 5888 5887 5886 5884 5883 5882 5881 5879 5878 5877 5877 5876 5875 5874
5911 5909 5909 5909 5908 5908 5907 5907 5906 5905 5904 5904 5903 5902 5901 5901 5900 5899 5898 5897 5896 5895 5894 5892 5891 5890 5889 5888 5887 5885 5884 5883 5881 5880 5879 5877 5876 5875 5874 5873 5872 5871 5870
5909 5909 5908 5908 5907 5907 5906 5905 5905 5904 5903 5903 5902 5901 5900 5899 5898 5897 5896 5895 5894 5893 5891 5890 5889 5888 5886 5885 5883 5882 5881 5879 5878 5876 5875 5874 5873 5871 5870 5869 5868 5866 5865
5908 5907 5906 5906 5906 5905 5905 5904 5903 5903 5902 5901 5900 5899 5898 5897 5896 5895 5894 5893 5892 5890 5889 5888 5886 5885 5883 5881 5880 5878 5877 5875 5874 5872 5871 5870 5869 5867 5866 5865 5863 5862 5861
5905 5905 5904 5904 5904 5903 5903 5902 5901 5900 5899 5899 5898 5897 5896 5895 5894 5893 5891 5890 5889 5888 5886 5885 5883 5881 5880 5878 5876 5874 5872 5870 5869 5868 5867 5865 5864 5862 5861 5859 5858 5857 5855
5902 5902 5902 5902 5901 5901 5900 5900 5899 5898 5897 5896 5895 5894 5893 5892 5891 5890 5888 5887 5886 5884 5883 5881 5880 5878 5876 5874 5872 5869 5867 5865 5864 5863 5862 5860 5859 5858 5856 5854 5853 5851 5850
5899 5900 5899 5899 5899 5898 5898 5897 5896 5895 5894 5893 5892 5891 5890 5889 5888 5886 5885 5884 5882 5881 5879 5877 5876 5874 5872 5870 5868 5865 5863 5861 5859 5858 5857 5855 5854 5852 5850 5849 5847 5845 5844
5895 5895 5895 5895 5895 5895 5894 5893 5892 5892 5891 5890 5888 5887 5886 5885 5884 5883 5881 5880 5878 5877 5875 5873 5872 5870 5868 5866 5864 5861 5858 5857 5855 5853 5852 5850 5848 5846 5844 5843 5841 5839 5838
5891 5891 5891 5891 5891 5891 5890 5889 5888 5887 5887 5886 5884 5883 5882 5881 5880 5879 5877 5876 5874 5873 5871 5869 5867 5865 5863 5861 5859 5857 5854 5853 5851 5849 5846 5844 5842 5840 5838 5837 5835 5833 5831
5886 5886 5886 5886 5886 5886 5885 5885 5884 5883 5882 5881 5880 5879 5878 5877 5875 5874 5873 5871 5870 5868 5866 5864 5863 5861 5858 5856 5854 5852 5850 5848 5846 5843 5841 5839 5836 5834 5832 5830 5829 5827 5825
5880 5880 5880 5880 5880 5880 5880 5879 5878 5877 5877 5876 5875 5874 5873 5872 5870 5869 5868 5866 5864 5862 5861 5859 5857 5855 5853 5851 5849 5847 5845 5843 5841 5838 5835 5833 5831 5829 5827 5825 5823 5821 5819
5874 5874 5873 5874 5874 5874 5873 5873 5872 5871 5871 5870 5869 5868 5867 5866 5864 5863 5861 5860 5858 5856 5855 5853 5852 5850 5848 5846 5844 5841 5839 5838 5835 5833 5831 5828 5826 5823 5821 5819 5817 5815 5813
5867 5867 5867 5867 5867 5867 5867 5866 5866 5865 5864 5863 5862 5861 5860 5859 5858 5856 5855 5853 5852 5850 5848 5847 5845 5843 5841 5839 5837 5835 5834 5832 5830 5827 5825 5823 5820 5818 5815 5813 5811 5809 5807
5860 5860 5860 5860 5860 5860 5860 5859 5859 5858 5858 5857 5856 5854 5853 5852 5851 5850 5848 5846 5845 5843 5841 5840 5838 5836 5835 5833 5831 5829 5827 5825 5824 5822 5819 5817 5814 5812 5809 5807 5805 5803 5801
5853 5853 5852 5852 5852 5852 5852 5852 5852 5851 5850 5849 5848 5847 5846 5845 5844 5842 5841 5839 5838 5836 5834 5833 5832 5830 5828 5826 5825 5823 5821 5819 5817 5815 5813 5811 5808 5806 5803 5801 5799 5797 5795
5845 5844 5844 5844 5844 5844 5844 5844 5844 5843 5842 5841 5841 5840 5839 5838 5836 5834 5833 5831 5830 5829 5827 5825 5824 5823 5821 5819 5818 5816 5814 5812 5810 5808 5806 5804 5802 5799 5797 5795 5793 5790 5788
5837 5837 5836 5836 5836 5836 5836 5836 5835 5835 5834 5833 5832 5832 5831 5829 5828 5826 5825 5823 5822 5821 5819 5818 5816 5815 5813 5812 5810 5808 5806 5804 5802 5800 5799 5797 5794 5792 5790 5788 5786 5783 5780
5829 5829 5828 5828 5828 5828 5827 5827 5827 5826 5826 5825 5824 5823 5822 5821 5820 5819 5817 5816 5815 5813 5812 5810 5809 5807 5806 5804 5802 5800 5798 5796 5794 5792 5791 5789 5787 5785 5783 5780 5778 5775 5773
5821 5821 5820 5820 5820 5819 5819 5819 5818 5818 5817 5816 5815 5814 5813 5812 5811 5810 5809 5808 5806 5805 5803 5802 5800 5799 5797 5796 5794 5792 5790 5788 5787 5785 5783 5781 5779 5777 5774 5772 5770 5767 5764
5812 5812 5812 5812 5811 5811 5810 5810 5809 5809 5808 5807 5806 5805 5804 5803 5802 5801 5800 5799 5798 5796 5794 5793 5791 5790 5788 5787 5785 5783 5781 5780 5778 5776 5774 5772 5770 5768 5765 5763 5760 5758 5755